Regional Weather Roundup
Issued by NWS

Home | Current Version | Previous Version | Text Only | Print | Product List | Glossary On
Versions: 1 2 3 4 5 6 7 8 9 10 11 12 13 14 15 16 17 18 19 20 21 22 23 24 25 26 27 28 29 30 31 32 33 34 35 36 37 38 39 40 41 42 43 44 45 46 47 48 49 50
841
ASUS43 KTOP 140908
RWRKS

WEATHER ROUNDUP FOR KANSAS
NATIONAL WEATHER SERVICE GOODLAND KS
300 AM CST SUN FEB 14 2016

NOTE:  "FAIR" INDICATES FEW OR NO CLOUDS BELOW 12,000 FEET WITH NO
SIGNIFICANT WEATHER AND/OR OBSTRUCTIONS TO VISIBILITY.

KSZ001>006-013>018-027>032-041>047-141000-
NORTHWEST KANSAS

CITY           SKY/WX    TMP DP  RH WIND       PRES   REMARKS
GOODLAND       CLEAR     31  26  82 NW13      30.01F WCI  21
HAYS           CLOUDY    23   9  54 N6        30.02S
HILL CITY      CLEAR     26  21  81 CALM      30.00F
RUSSELL        CLOUDY    19  13  77 N5        30.03S
$$

KSZ061>065-074>080-084>089-141000-
SOUTHWEST KANSAS

CITY           SKY/WX    TMP DP  RH WIND       PRES   REMARKS
DODGE CITY     CLOUDY    27  21  78 N7        30.00F
ELKHART          N/A     34  23  64 N14         N/A  WCI  25
GARDEN CITY    CLOUDY    28  23  81 N14       30.00S WCI  17
GREAT BEND     PTCLDY    25  10  54 N7        30.04F
LIBERAL        CLOUDY    30  21  69 N20       29.99R WCI  18
PRATT          CLOUDY    32  20  59 N17       30.02F WCI  21
$$

KSZ066>073-081>083-090>101-141000-
SOUTHEAST KANSAS

CITY           SKY/WX    TMP DP  RH WIND       PRES   REMARKS
CHANUTE        CLOUDY    35  14  42 E12       30.00F WCI  27
COFFEYVILLE    CLOUDY    40  17  39 SE13      30.00F WCI  32
HUTCHINSON     CLOUDY    27  12  53 N12       30.04R WCI  17
MEDICINE LODGE   N/A     39  28  64 N15G23    29.99R WCI  31
NEWTON         CLOUDY    25   9  50 N12       30.04R WCI  14
PARSONS        CLOUDY    39  18  42 SE9G16    30.00F
WICHITA INTL   CLOUDY    36  17  46 N16       30.02R WCI  26
WICHITA JABRA  CLOUDY    29  13  51 N14       30.01R WCI  18
WICHITA MCCONL CLOUDY    33  16  49 NW14      30.01R WCI  23
WINFIELD       MOCLDY    38  22  52 SE9       29.93S
$$

KSZ007>012-019>026-033>040-048>060-102>105-141000-
NORTHEAST KANSAS

CITY           SKY/WX    TMP DP  RH WIND       PRES   REMARKS
CONCORDIA      CLOUDY    16   8  71 S3        30.04F
EMPORIA        CLOUDY    25   9  50 N8        30.04R
LAWRENCE       CLOUDY    24   6  46 E8        30.08F
MANHATTAN      CLOUDY    22   8  55 SE3       30.06F
MARYSVILLE     CLOUDY    19   9  63 CALM      30.06F
OLATHE IND     CLOUDY    24   6  46 E9        30.08F
OLATHE EXE     CLOUDY    23   5  46 E12       30.07F WCI  12
SALINA         CLOUDY    24   8  50 SE3       30.05F
TOPEKA BILLARD CLOUDY    25   5  42 E8        30.08F
TOPEKA FORBES  CLOUDY    25   7  46 E7        30.05F
$$




USA.gov is the U.S. government's official web portal to all federal, state and local government web resources and services.